{"data":{"norad_id":47379,"intl_designator":"2021-005AG","name":"STARLINK-2099","alt_names":[],"object_type":"PAYLOAD","status":"ACTIVE","operator":null,"country":"US","launch_date":"2021-01-20","launch_site_code":"AFETR","launch_vehicle":null,"mission":null,"orbit_class":"UNKNOWN","rcs_meters":null,"size_class":null,"mass_kg":null,"dimensions":null,"purposes":["comms"],"wikipedia_slug":null,"has_3d_model":false,"image_url":null,"decayed_at":null,"tle_current":{"epoch":"2026-05-25T01:24:38.481408Z","epoch_age_seconds":63328,"freshness":"FRESH","line1":"1 47379U 21005AG  26145.05877872  .00003793  00000+0  13387-3 0  9996","line2":"2 47379  53.1608  18.3499 0001593  93.3438 266.7746 15.31714701295427","mean_motion":15.31714701,"eccentricity":0.0001593,"inclination_deg":53.1608,"raan_deg":18.3499,"arg_perigee_deg":93.3438,"mean_anomaly_deg":266.7746,"bstar":0.00013387,"rev_number":29542,"period_min":94.012285646921,"perigee_km":469.60515353572,"apogee_km":471.78719178453,"semimajor_km":6848.8331726601,"source":"CELESTRAK","updated_at":"2026-05-25T13:38:16.528319Z"}}}